Skip to main content.
NOAA NWS Hourly Roundups by Site

NOAA NWS Hourly Roundups by Site

Regional Weather Roundup for Omaha, NE

To Select Another Site Choose from List

Select Site:  

000
ASUS43 KOAX 210113
RWRNE

WEATHER ROUNDUP FOR NEBRASKA
NATIONAL WEATHER SERVICE OMAHA NE
800 PM CDT SAT APR 20 2024

NOTES: SATELLITE DATA IS BEING USED TO AUGMENT CLOUD COVER ABOVE
       12000 FEET.
       "FAIR" INDICATES FEW OR NO CLOUDS BELOW 12,000 FEET WITH NO
       SIGNIFICANT WEATHER AND/OR OBSTRUCTIONS TO VISIBILITY.


NEZ001>004-019>022-054>056-210200-
NEBRASKA PANHANDLE

CITY           SKY/WX    TMP DP  RH WIND       PRES   REMARKS
SCOTTSBLUFF    PTCLDY    39  27  62 S9        30.34S WCI  33
ALLIANCE       CLOUDY    38  22  52 S5        30.32S WCI  34
CHADRON        CLOUDY    46  22  38 W10       30.31S
KIMBALL        CLOUDY    30  27  88 CALM      30.33F
SIDNEY         CLOUDY    32  27  81 SE5       30.34S WCI  27
$$

NEZ057>060-069>072-079>082-210200-
SOUTHWEST NEBRASKA

CITY           SKY/WX    TMP DP  RH WIND       PRES   REMARKS
NORTH PLATTE   CLOUDY    38  31  76 SW8       30.36F WCI  32
GRANT          CLOUDY    34  32  93 CALM      30.36S
IMPERIAL       CLOUDY    34  31  88 NE3       30.37S
LEXINGTON      CLOUDY    42  31  64 W10       30.36F
MCCOOK         LGT RAIN  39  34  82 SE6       30.37F WCI  35
OGALLALA       CLOUDY    38  30  73 SW3       30.38S
$$

NEZ005>010-023>029-035>040-094-210200-
NORTH CENTRAL NEBRASKA

CITY           SKY/WX    TMP DP  RH WIND       PRES   REMARKS
VALENTINE      CLEAR     46  18  32 NW9       30.32S
AINSWORTH      PTCLDY    44  20  38 N7        30.32S
BROKEN BOW     CLOUDY    46  24  42 W7        30.31F
O`NEILL        MOCLDY    44  23  43 NW12      30.32F
ORD            MOCLDY    49  24  37 N6        30.31F
THEDFORD       CLOUDY    45  20  37 N3        30.33S
$$

NEZ041-046>049-061>064-073>077-083>087-210200-
SOUTH CENTRAL NEBRASKA

CITY           SKY/WX    TMP DP  RH WIND       PRES   REMARKS
GRAND ISLAND   MOCLDY    46  22  38 W7        30.34F
AURORA         PTCLDY    44  20  38 W6        30.34F
HASTINGS       CLOUDY    47  23  38 NW7       30.34F
HEBRON         CLOUDY    51  19  29 N8        30.34S
HOLDREGE       CLOUDY    43  29  59 W9        30.36S
KEARNEY        MOCLDY    46  24  42 W8        30.35F
YORK           CLOUDY    45  21  39 NW7       30.33F
$$

NEZ011>018-030>034-042>045-210200-
NORTHEAST NEBRASKA

CITY           SKY/WX    TMP DP  RH WIND       PRES   REMARKS
NORFOLK        CLEAR     45  24  43 NW10      30.32S
ALBION         MOCLDY    45  22  41 CALM      30.32F
BLAIR          MOCLDY    45  24  42 NW9       30.32S
COLUMBUS       PTCLDY    44  25  47 NW8       30.34S
FREMONT        PTCLDY    45  22  40 NW8       30.33S
TEKAMAH        CLOUDY    47  25  42 NW9       30.33S
WAYNE            N/A    N/A N/A N/A MISG        N/A
$$

NEZ050>053-065>068-078-088>093-210200-
SOUTHEAST NEBRASKA

CITY           SKY/WX    TMP DP  RH WIND       PRES   REMARKS
LINCOLN        CLOUDY    49  23  36 NW6       30.35S
OMAHA EPPLEY   PTCLDY    45  24  43 NW10      30.32S
BEATRICE       MOCLDY    49  25  38 N16       30.31F
FALLS CITY     MOCLDY    49  26  41 NW7       30.30F
NEBRASKA CITY  MOCLDY    48  24  39 N13       30.31S
PLATTSMOUTH    PTCLDY    47  24  41 NW9       30.32S
$$

NEZ044-045-051>053-067-210200-
OMAHA AREA

CITY           SKY/WX    TMP DP  RH WIND       PRES   REMARKS
OMAHA EPPLEY   PTCLDY    45  24  43 NW10      30.32S
BLAIR          MOCLDY    45  24  42 NW9       30.32S
FREMONT        PTCLDY    45  22  40 NW8       30.33S
MILLARD        PTCLDY    46  23  40 NW8       30.33S
OFFUTT AFB     CLOUDY    47  23  39 NW9       30.31S
PLATTSMOUTH    PTCLDY    47  24  41 NW9       30.32S
$$


 

View Past Reports for Omaha, NE.

Products Courtesy of NOAA-NWS
NWS Information Parsing Script by Ken True at Saratoga Weather - Script by SE Lincoln Weather.